Oxford, NC

8:19 PM EST on December 06, 2019 (GMT -0500)
Henderson-Oxford

Weather History for KHNZ - November, 2019

Change the Weather History Date:

Thursday, November 14, 2019

  Actual Average (KTDF) Record (KTDF)
Temperature  
Mean Temperature 30 °F -  
Max Temperature 41 °F 59 °F 80 °F (1958)
Min Temperature 19 °F 33 °F 19 °F (1986)
Degree Days  
Heating Degree Days 36    
Moisture  
Dew Point 22 °F    
Average Humidity 73    
Maximum Humidity 98    
Minimum Humidity 54    
Precipitation  
Precipitation 0.19 in - - ()
Sea Level Pressure  
Sea Level Pressure 30.36 in    
Wind  
Wind Speed 0 mph (North)    
Max Wind Speed 0 mph    
Max Gust Speed -    
Visibility 9 miles    
Events Rain    
Averages and records for this station are not official NWS values.
T = Trace of Precipitation, MM = Missing Value Source: NWS Daily Summary

Daily Weather History Graph

Daily Weather History Graph

Search for Another Location

Airport or City:

Astronomy

Nov. 14, 2019 Rise Set
Actual Time 6:50 AM EST 5:06 PM EST
Civil Twilight 6:22 AM EST 5:33 PM EST
Nautical Twilight 5:51 AM EST 6:04 PM EST
Astronomical Twilight 5:21 AM EST 6:35 PM EST
Moon 6:53 PM EST (11/14) 8:41 AM EST (11/14)
Length of Visible Light 11h 11m
Length of Day
10h 16m
Waning Gibbous, 95% of the Moon is Illuminated
Nov 14
Waning Gibbous
Nov 19
Last Quarter
Nov 26
New
Dec 4
First Quarter
Dec 12
Full

Hourly Weather History & Observations

Time (EST) Temp. Dew Point Humidity Pressure Visibility Wind Dir Wind Speed Gust Speed Precip Events Conditions
12:15 AM 25.7 °F 13.1 °F 59% 30.40 in 10.0 mi Calm Calm - N/A   Clear
12:35 AM 23.2 °F 13.8 °F 67% 30.41 in 10.0 mi Calm Calm - N/A   Clear
12:55 AM 22.8 °F 14.9 °F 72% 30.41 in 10.0 mi Calm Calm - N/A   Clear
1:15 AM 23.2 °F 14.9 °F 71% 30.41 in 10.0 mi Calm Calm - N/A   Clear
1:35 AM 23.7 °F 13.5 °F 65% 30.41 in 10.0 mi Calm Calm - N/A   Clear
1:55 AM 23.9 °F 14.0 °F 66% 30.40 in 10.0 mi Calm Calm - N/A   Clear
2:15 AM 22.5 °F 14.5 °F 72% 30.41 in 10.0 mi Calm Calm - N/A   Clear
2:35 AM 21.6 °F 16.5 °F 81% 30.42 in 10.0 mi Calm Calm - N/A   Clear
2:55 AM 21.6 °F 17.4 °F 84% 30.41 in 10.0 mi Calm Calm - N/A   Clear
3:15 AM 20.3 °F 17.1 °F 87% 30.40 in 10.0 mi Calm Calm - N/A   Clear
3:35 AM 21.0 °F 17.4 °F 86% 30.40 in 10.0 mi Calm Calm - N/A   Clear
3:55 AM 20.3 °F 17.6 °F 89% 30.39 in 10.0 mi Calm Calm - N/A   Clear
4:15 AM 20.7 °F 17.6 °F 88% 30.39 in 10.0 mi Calm Calm - N/A   Clear
4:35 AM 20.3 °F 16.9 °F 87% 30.39 in 10.0 mi Calm Calm - N/A   Clear
4:55 AM 20.1 °F 17.6 °F 90% 30.39 in 10.0 mi Calm Calm - N/A   Clear
5:35 AM 20.1 °F 17.8 °F 91% 30.40 in 10.0 mi Calm Calm - N/A   Clear
5:55 AM 19.4 °F 17.1 °F 91% 30.40 in 10.0 mi Calm Calm - N/A   Clear
6:15 AM 19.9 °F 17.2 °F 89% 30.40 in 10.0 mi Calm Calm - N/A   Clear
6:35 AM 19.9 °F 17.6 °F 91% 30.40 in 10.0 mi Calm Calm - N/A   Clear
6:55 AM 20.1 °F 18.0 °F 91% 30.40 in 10.0 mi Calm Calm - N/A   Clear
7:15 AM 19.4 °F 16.7 °F 89% 30.40 in 10.0 mi Calm Calm - N/A   Clear
7:35 AM 19.2 °F 17.4 °F 93% 30.41 in 10.0 mi Calm Calm - N/A   Clear
7:55 AM 20.5 °F 18.7 °F 93% 30.42 in 10.0 mi Calm Calm - N/A   Clear
8:15 AM 22.5 °F 20.1 °F 91% 30.42 in 10.0 mi Calm Calm - N/A   Clear
8:55 AM 27.9 °F 21.9 °F 78% 30.43 in 10.0 mi Calm Calm - N/A   Clear
9:35 AM 31.1 °F 23.2 °F 72% 30.42 in 10.0 mi Calm Calm - N/A   Clear
9:55 AM 32.4 °F 20.7 °F 62% 30.42 in 10.0 mi Calm Calm - N/A   Clear
10:15 AM 34.0 °F 19.4 °F 55% 30.42 in 10.0 mi Calm Calm - N/A   Scattered Clouds
10:35 AM 34.5 °F 20.3 °F 56% 30.41 in 10.0 mi Calm Calm - N/A   Scattered Clouds
10:55 AM 34.9 °F 20.3 °F 55% 30.41 in 10.0 mi Calm Calm - N/A   Scattered Clouds
11:15 AM 36.1 °F 21.6 °F 56% 30.40 in 10.0 mi Calm Calm - N/A   Scattered Clouds
11:35 AM 36.1 °F 21.6 °F 56% 30.39 in 10.0 mi Calm Calm - N/A   Scattered Clouds
11:55 AM 37.2 °F 22.6 °F 56% 30.37 in 10.0 mi Calm Calm - N/A   Mostly Cloudy
12:15 PM 37.9 °F 23.2 °F 55% 30.36 in 10.0 mi Calm Calm - N/A   Overcast
12:35 PM 38.8 °F 23.5 °F 54% 30.35 in 10.0 mi Calm Calm - N/A   Mostly Cloudy
12:55 PM 38.5 °F 23.7 °F 55% 30.34 in 10.0 mi Calm Calm - N/A   Mostly Cloudy
1:15 PM 38.7 °F 23.7 °F 55% 30.33 in 10.0 mi Calm Calm - N/A   Overcast
1:55 PM 39.9 °F 25.2 °F 56% 30.32 in 10.0 mi Calm Calm - N/A   Mostly Cloudy
2:15 PM 40.5 °F 25.5 °F 55% 30.30 in 10.0 mi Calm Calm - N/A   Scattered Clouds
2:35 PM 40.8 °F 25.3 °F 54% 30.32 in 10.0 mi Calm Calm - N/A   Mostly Cloudy
2:55 PM 40.6 °F 25.3 °F 54% 30.30 in 10.0 mi Calm Calm - N/A   Mostly Cloudy
3:15 PM 40.8 °F 25.9 °F 55% 30.30 in 10.0 mi Calm Calm - N/A   Mostly Cloudy
3:35 PM 40.8 °F 25.7 °F 55% 30.30 in 10.0 mi Calm Calm - N/A   Mostly Cloudy
3:55 PM 40.3 °F 26.4 °F 58% 30.32 in 10.0 mi Calm Calm - N/A   Mostly Cloudy
4:15 PM 39.7 °F 26.2 °F 59% 30.30 in 10.0 mi Calm Calm - N/A   Mostly Cloudy
4:55 PM 38.7 °F 26.4 °F 61% 30.30 in 10.0 mi Calm Calm - N/A   Overcast
5:15 PM 38.3 °F 25.7 °F 61% 30.30 in 10.0 mi Calm Calm - N/A   Overcast
5:35 PM 37.9 °F 25.9 °F 62% 30.32 in 10.0 mi Calm Calm - N/A   Overcast
6:15 PM 37.4 °F 25.3 °F 62% 30.31 in 10.0 mi Calm Calm - N/A   Overcast
6:35 PM 37.4 °F 25.7 °F 63% 30.31 in 10.0 mi Calm Calm - N/A   Overcast
6:55 PM 37.4 °F 26.4 °F 65% 30.32 in 10.0 mi Calm Calm - N/A   Overcast
7:55 PM 37.6 °F 27.1 °F 66% 30.31 in 10.0 mi Calm Calm - N/A   Overcast
8:35 PM 36.9 °F 27.3 °F 68% 30.32 in 7.0 mi Calm Calm - N/A   Light Drizzle
8:55 PM 34.0 °F 30.0 °F 85% 30.33 in 4.0 mi Calm Calm - N/A   Drizzle
9:15 PM 33.3 °F 31.6 °F 94% 30.32 in 3.0 mi Calm Calm - N/A   Light Drizzle
9:35 PM 32.9 °F 32.0 °F 96% 30.32 in 3.0 mi Calm Calm - N/A Rain Light Rain
9:55 PM 32.9 °F 32.0 °F 96% 30.31 in 3.0 mi Calm Calm - N/A Rain Light Rain
10:15 PM 33.3 °F 32.5 °F 97% 30.30 in 2.0 mi Calm Calm - 0.02 in Rain Rain
10:55 PM 33.3 °F 32.5 °F 97% 30.30 in 1.5 mi Calm Calm - 0.13 in   Overcast
11:15 PM 33.4 °F 32.9 °F 98% 30.29 in 4.0 mi Calm Calm - 0.03 in Rain Rain
11:35 PM 33.8 °F 33.1 °F 97% 30.29 in 7.0 mi Calm Calm - 0.06 in   Overcast